Theta_e
314 317 318 319 324 327 330 331 329 327 322 318 317 318 321 323 322 321 320 320 324 325 326 327 326 326 326 324 326 331 333 335 339 340 344 344 339 340 341 340 341 340 341 337 335 337 338 339 333 324 321 319 321 328 329 330 332 332 331 331 333 332 332 332 334 334 332 332 332 332 331 331 331 330 330 333 333 333 333 333 332 331 330 330 331 331 331 331 331 330 330 329 329 329 330 330 330
315 323 323 321 325 326 329 329 326 322 318 315 317 319 320 322 322 321 320 322 324 324 326 327 327 326 323 323 323 330 336 336 338 341 342 341 340 341 340 341 341 341 341 336 336 338 338 338 332 324 322 319 320 326 328 329 331 331 332 331 332 333 335 335 335 333 333 333 333 332 331 330 330 330 331 333 334 333 333 334 334 332 331 330 331 331 331 331 331 331 330 330 329 329 329 330 330
316 323 325 324 325 326 327 326 322 318 316 314 316 320 321 321 323 324 324 323 324 325 328 327 327 325 323 325 321 329 338 336 337 339 339 340 340 340 340 341 341 341 340 338 339 339 338 337 332 325 322 319 319 322 325 330 332 332 332 332 332 334 335 335 334 333 334 334 333 332 330 330 329 331 332 333 333 332 332 333 332 332 331 330 330 331 331 331 331 330 330 330 329 328 328 329 330
316 320 326 328 328 326 327 327 324 319 316 314 315 320 322 323 325 326 326 325 325 326 327 326 327 326 325 325 322 331 339 336 337 338 339 340 340 340 340 340 341 340 339 340 341 339 337 337 333 327 323 320 319 319 323 330 333 332 332 332 332 334 334 334 334 334 335 334 333 332 331 331 329 331 333 332 332 332 331 332 332 332 330 329 330 330 330 330 330 330 329 330 329 328 327 328 329
319 320 325 328 330 328 326 327 325 321 317 316 315 320 323 323 326 325 326 327 325 326 325 324 328 327 324 325 327 334 338 337 337 338 339 339 339 339 339 339 340 339 339 341 342 340 337 336 334 329 324 320 320 319 322 329 332 332 332 332 332 333 333 334 334 334 335 334 332 332 332 331 328 329 331 331 331 331 331 332 332 331 331 330 330 329 329 329 329 329 329 329 330 329 327 327 329
321 322 325 326 328 326 325 322 321 320 319 320 318 319 322 323 324 324 325 325 325 326 325 326 326 325 327 328 332 335 336 337 336 338 340 338 339 339 338 339 339 339 340 341 342 340 337 337 335 331 326 321 320 319 321 327 331 332 333 332 332 333 333 334 334 334 335 334 332 332 331 330 328 328 329 329 330 330 331 331 331 330 330 331 331 331 330 329 329 329 329 329 329 329 328 328 329
322 325 326 325 325 325 327 321 320 321 320 322 320 320 322 322 324 323 323 323 323 323 324 327 323 325 329 329 333 336 336 337 338 339 339 338 339 338 338 338 338 338 339 341 342 339 336 337 336 333 328 322 320 320 320 324 328 332 333 333 332 333 333 333 333 334 334 333 332 331 330 329 328 328 328 329 330 330 331 331 330 329 330 331 331 331 331 330 328 328 329 329 328 328 328 329 329
321 326 328 327 327 325 326 324 323 322 320 320 320 320 321 322 323 322 323 322 321 322 324 325 323 324 324 328 335 336 337 338 339 339 338 338 339 338 337 337 336 338 339 341 342 338 337 337 336 335 330 323 321 321 320 321 325 329 331 333 333 333 333 332 333 334 333 332 331 330 329 329 328 328 328 329 329 330 330 330 330 329 329 330 330 329 330 330 328 327 327 328 328 328 327 328 328
322 326 327 326 328 325 322 324 323 321 320 319 319 320 321 322 322 321 322 321 321 322 323 323 323 322 321 331 337 335 337 338 338 337 338 338 338 338 337 337 336 338 340 341 342 338 337 337 336 336 331 325 323 321 321 320 322 325 328 332 333 333 334 333 333 333 332 332 331 330 329 328 328 327 327 327 328 328 329 329 329 329 329 329 329 329 329 329 329 328 328 328 328 328 326 327 327
324 325 326 325 326 322 319 322 323 321 321 320 318 319 321 322 322 321 321 320 320 322 323 323 322 321 321 332 337 337 336 337 337 337 337 338 338 337 336 337 336 338 340 341 341 337 336 337 336 336 333 328 324 322 322 321 320 322 324 329 332 332 333 332 332 331 330 331 329 328 329 328 328 327 327 327 327 327 328 328 329 329 329 328 327 328 328 328 328 328 328 328 327 327 326 325 325
326 323 325 325 322 319 318 320 321 322 320 320 319 318 320 321 321 321 321 320 320 322 323 322 321 319 321 333 338 337 335 336 337 337 337 337 337 336 336 336 336 338 341 341 341 338 336 337 336 336 335 331 326 323 322 322 321 320 320 323 327 329 330 331 332 331 328 329 327 325 327 328 328 327 327 327 327 328 328 329 329 329 329 328 327 327 327 327 328 328 328 327 327 327 325 324 325
328 324 325 325 322 321 320 320 320 322 321 319 319 319 319 321 321 321 320 319 320 322 322 321 320 318 319 333 338 337 336 336 337 337 336 336 336 336 336 337 336 337 340 341 341 339 336 337 337 336 336 334 329 325 323 323 322 321 320 319 322 326 327 327 328 329 328 328 326 323 326 329 328 328 327 327 327 328 329 329 329 329 328 328 327 325 325 326 327 327 327 327 327 326 325 324 326
328 327 324 322 324 325 323 322 322 322 322 320 319 319 320 320 321 321 320 319 319 319 320 320 320 318 323 334 338 337 336 336 337 337 336 336 336 336 336 337 336 337 339 340 341 339 336 336 337 337 336 335 333 329 325 324 323 322 322 320 319 321 323 324 325 326 326 325 323 320 325 328 328 328 327 327 327 327 328 328 328 329 328 328 326 324 323 325 326 326 326 326 327 326 325 325 326
326 328 324 323 326 326 324 323 322 320 320 320 319 318 320 320 320 321 320 319 318 319 319 319 319 318 324 333 335 337 338 336 337 336 336 336 335 337 337 336 337 337 338 339 341 340 337 336 337 336 336 335 335 333 328 325 324 323 323 322 321 320 320 321 322 323 322 322 321 318 321 327 327 327 327 327 327 327 327 327 328 329 328 326 324 323 322 324 326 326 326 326 326 325 325 325 326
326 328 326 326 325 324 325 324 323 320 319 321 319 319 320 319 320 320 319 319 318 319 319 318 320 319 325 332 332 337 339 336 337 337 336 336 336 337 337 337 337 338 337 337 340 341 339 338 338 337 336 336 335 334 332 328 326 324 324 324 324 323 322 320 319 320 319 319 318 315 318 324 326 326 327 326 326 327 327 328 328 328 327 325 323 321 320 323 324 325 325 325 324 324 324 324 324
326 328 328 327 324 322 323 324 324 321 320 320 319 319 319 318 319 319 317 318 318 318 317 319 320 320 330 337 335 338 338 337 337 337 337 336 336 337 337 337 338 339 338 336 339 340 341 340 340 338 336 336 336 335 334 332 328 326 325 325 324 324 324 323 321 320 318 316 312 313 316 321 324 325 325 325 326 327 327 328 328 328 327 326 323 321 320 320 321 322 323 323 324 324 324 323 323
324 326 328 325 322 322 322 323 323 320 320 319 319 319 319 318 317 317 316 317 318 317 318 319 320 322 333 339 338 339 338 337 337 337 337 336 336 336 337 338 338 339 337 336 338 339 340 340 340 339 337 337 338 337 336 334 331 328 326 325 325 325 325 324 324 321 320 317 310 311 315 318 321 323 325 325 326 326 326 326 326 326 326 325 322 321 321 320 319 320 320 322 323 324 323 323 323
323 326 327 323 322 323 323 323 321 320 320 319 319 319 318 318 317 316 316 317 317 317 318 320 322 326 333 339 338 338 337 337 337 337 337 336 336 336 337 337 337 338 336 336 337 337 339 340 340 340 339 339 339 339 338 337 333 330 327 326 326 326 326 325 325 323 322 319 312 316 322 322 320 321 325 325 324 325 325 325 325 325 324 323 322 321 321 319 317 317 318 319 320 321 322 323 322
322 325 324 322 324 323 322 321 318 319 319 318 319 319 318 318 317 317 317 318 317 316 317 318 323 326 330 337 337 336 337 337 337 336 337 337 336 336 336 337 336 337 336 335 336 336 337 339 340 340 340 340 340 339 339 339 336 333 330 329 327 326 326 325 326 325 325 322 318 324 328 328 326 325 327 325 324 325 324 325 325 325 324 323 321 321 320 318 316 316 317 317 319 321 323 324 323
320 322 323 323 323 322 320 318 318 318 318 318 319 319 319 318 317 317 316 318 317 316 317 316 322 326 328 335 335 335 335 336 337 336 336 336 336 336 336 336 336 336 336 335 335 335 336 338 339 340 340 340 340 340 339 339 338 335 334 334 332 330 328 326 327 328 329 327 323 328 330 329 330 330 328 325 325 326 324 325 325 325 325 323 322 321 320 317 316 317 316 317 320 323 324 324 323
319 321 322 323 321 320 318 317 318 319 319 318 318 319 319 318 317 316 316 317 317 316 317 316 319 325 327 332 334 334 335 336 336 336 336 335 336 335 335 336 335 335 335 334 335 334 335 337 338 339 340 340 340 340 339 339 338 337 337 336 335 334 332 328 329 330 331 330 327 329 330 328 328 330 329 325 326 326 324 324 324 324 324 323 321 322 322 319 317 317 316 318 321 323 323 323 323
319 320 320 320 320 319 317 316 318 318 319 319 318 319 318 317 316 316 316 316 317 315 317 317 319 325 327 330 332 333 334 335 336 336 336 336 336 336 336 335 335 335 335 334 334 334 334 336 338 338 339 339 339 339 339 339 338 338 338 337 336 336 335 331 331 331 331 331 329 329 331 329 327 329 329 322 323 327 326 325 324 324 325 325 322 323 325 322 320 318 316 318 322 323 322 323 323
319 319 319 319 318 317 316 315 317 317 318 318 318 318 317 317 316 316 317 316 316 315 316 321 324 326 327 330 331 333 334 334 335 336 336 336 336 337 337 336 336 336 335 335 334 334 334 335 336 337 339 339 338 338 338 339 338 338 338 338 337 336 336 333 332 331 330 330 330 329 330 330 327 327 328 321 322 328 328 327 326 326 327 326 324 325 326 324 322 320 318 318 322 324 323 321 320
317 318 318 318 316 315 315 314 315 317 317 317 317 317 317 317 316 316 317 316 316 315 316 319 324 327 329 331 331 333 334 334 335 336 336 337 337 337 337 337 337 336 335 335 335 335 334 334 335 336 338 338 338 338 338 338 337 338 337 337 337 337 336 335 333 332 331 330 330 329 329 330 327 326 328 324 324 329 329 328 328 327 327 327 326 325 326 325 322 321 320 318 320 321 320 318 317
317 317 317 316 315 314 314 313 314 315 315 316 317 317 317 316 315 316 316 316 316 316 317 319 322 327 330 331 331 333 333 333 335 336 336 337 337 337 337 337 337 337 336 336 335 335 335 334 335 335 336 337 337 338 338 338 337 337 337 337 337 337 337 335 334 333 332 331 330 329 329 329 329 327 328 327 326 328 329 328 328 328 327 327 326 325 325 325 322 321 320 319 318 318 318 318 318
316 316 316 315 314 314 313 313 313 314 314 315 316 317 316 315 315 316 317 316 316 316 319 320 321 325 328 329 330 332 332 333 334 335 336 336 337 337 337 337 337 337 336 336 336 335 335 335 335 335 335 336 336 337 337 337 337 336 336 337 337 336 336 336 335 334 332 331 330 329 329 329 329 328 328 328 327 327 328 328 328 328 327 327 326 326 325 324 323 322 321 319 318 318 318 320 320
316 316 316 315 314 314 314 314 313 314 315 314 316 317 315 314 315 317 317 315 315 316 318 320 320 321 324 326 328 329 330 332 333 335 336 336 337 337 337 337 337 338 337 337 337 336 336 335 335 335 336 336 336 336 336 336 337 336 336 336 337 337 336 335 335 335 333 332 331 330 329 328 329 329 329 329 328 327 327 327 328 327 327 327 326 326 325 324 323 322 322 321 320 319 319 320 320
316 316 316 315 314 314 314 314 314 314 315 313 315 316 315 315 315 317 316 315 315 315 316 320 320 320 321 324 326 327 328 331 333 333 335 336 336 337 337 337 337 338 337 337 337 336 336 336 335 335 336 336 336 336 336 336 337 337 336 335 336 337 336 335 335 335 334 333 332 331 330 329 328 329 329 329 329 328 327 327 327 327 326 326 326 326 324 324 323 323 322 321 320 320 320 320 321
316 315 316 315 314 314 314 314 314 315 315 314 314 315 315 316 316 316 316 315 315 315 316 319 319 318 320 323 326 328 327 329 332 333 334 335 336 337 337 337 337 337 338 337 337 337 336 336 335 335 335 335 336 336 336 336 337 337 337 336 335 336 335 335 335 335 334 333 333 332 330 330 329 329 329 329 329 328 328 327 327 327 326 326 326 325 324 324 323 323 322 321 321 320 321 321 321
315 315 316 315 315 315 315 315 315 315 315 314 314 315 316 317 317 316 315 315 316 315 316 319 319 318 320 323 326 329 328 328 331 332 334 335 335 335 336 337 337 337 337 336 337 337 336 336 336 336 335 335 335 335 336 336 336 337 337 337 336 336 335 335 335 335 335 334 334 332 331 330 330 329 329 329 329 329 328 328 327 327 326 326 326 325 324 323 323 323 322 321 321 320 320 320 320
315 315 316 318 317 315 315 315 314 315 314 314 314 314 316 317 316 316 315 314 315 315 316 317 318 318 320 325 327 329 329 327 330 332 333 334 334 334 335 336 337 337 336 336 336 336 336 336 335 335 335 335 335 335 335 335 336 336 337 337 336 337 336 334 334 335 335 335 334 333 332 331 330 329 329 329 329 329 329 328 328 327 327 326 326 325 325 324 324 323 322 321 321 320 320 320 319
314 315 316 318 317 315 316 315 315 315 314 313 314 314 315 315 315 314 314 314 315 315 315 315 317 318 320 324 327 327 327 327 329 331 332 332 333 333 333 334 335 335 335 334 335 336 336 336 335 335 335 335 335 335 335 335 336 336 336 336 335 336 336 335 334 334 335 335 335 334 333 331 331 330 329 329 329 329 329 329 328 327 327 327 327 327 326 326 325 323 322 322 321 321 321 321 320
314 315 316 316 316 315 316 315 315 316 315 313 314 315 316 315 314 313 313 314 314 314 316 315 316 317 318 321 323 323 324 327 328 328 330 331 332 333 332 332 333 333 334 334 334 335 336 336 335 335 335 335 335 335 334 335 336 335 335 335 334 334 335 335 334 334 334 335 335 334 334 333 332 331 330 329 329 329 329 329 329 328 327 327 327 327 327 327 325 323 323 323 322 322 321 321 321
315 315 316 316 315 315 315 315 316 316 315 314 314 315 315 315 314 314 314 314 314 314 315 315 316 317 318 319 320 319 320 324 327 326 327 330 331 332 332 332 332 332 333 333 333 334 335 336 336 335 335 335 334 335 334 333 334 334 334 334 333 333 334 335 334 334 334 334 334 334 334 333 333 332 331 330 329 328 328 328 329 329 328 328 327 327 327 327 326 324 324 324 323 322 321 321 321
315 315 314 315 315 315 315 315 315 316 315 315 315 315 315 315 315 315 314 314 314 314 314 315 316 317 318 318 318 317 317 319 322 324 325 327 329 330 331 331 332 332 332 332 333 334 334 336 336 335 334 334 334 335 334 333 333 333 333 333 332 332 333 333 333 334 334 333 333 333 334 334 333 332 331 331 330 329 329 329 329 328 328 328 328 327 327 326 326 325 324 323 322 321 321 321 321
316 317 314 315 316 314 315 316 314 315 315 315 316 315 314 314 315 316 315 314 315 315 315 316 317 317 318 319 319 319 319 318 317 321 324 325 327 329 330 332 332 333 333 333 334 334 335 335 336 335 334 334 334 334 334 333 333 332 332 332 331 332 332 332 332 332 333 334 333 333 333 333 333 332 331 331 331 331 330 330 329 329 328 328 329 328 327 326 326 325 324 323 322 321 321 321 320
315 316 314 315 317 314 314 315 314 314 315 315 315 315 315 315 315 316 316 315 315 315 316 317 317 318 319 319 321 321 321 320 317 318 321 323 326 328 329 330 331 333 334 333 334 335 335 335 335 335 334 334 334 334 335 334 333 333 332 332 331 331 331 331 331 331 332 333 333 333 333 333 333 332 331 331 331 332 331 331 330 329 327 327 328 328 327 327 326 326 324 323 322 321 321 321 320
315 316 315 315 317 315 315 315 313 314 315 315 315 314 314 314 315 316 317 315 315 316 316 316 316 318 319 320 322 322 322 327 325 320 319 321 324 327 328 329 328 330 331 332 333 333 334 334 334 335 334 333 334 334 334 334 333 332 331 331 331 331 331 331 331 331 331 331 331 332 332 333 333 333 332 331 330 331 331 331 330 330 327 326 328 328 327 327 327 327 325 323 322 321 321 320 320
316 317 316 315 317 316 314 314 313 313 314 315 316 316 315 315 315 316 317 316 315 316 315 316 317 317 318 319 321 322 325 334 331 321 317 317 319 321 323 325 327 327 328 329 330 330 332 333 333 333 333 333 332 333 333 333 333 332 331 331 331 331 331 331 331 331 331 330 330 331 331 332 333 332 332 331 331 331 331 331 330 330 329 328 328 328 328 328 327 326 325 324 323 322 320 320 320
317 317 315 315 318 317 314 314 314 313 313 314 317 318 317 315 316 317 316 316 315 316 317 317 319 318 317 319 323 323 325 332 331 323 318 315 315 316 316 319 322 324 326 326 327 328 329 331 331 332 332 332 331 331 332 332 332 332 331 331 331 331 331 330 330 330 330 330 330 331 332 332 332 332 332 332 332 332 332 331 330 330 330 330 329 329 329 328 327 326 326 325 324 322 320 320 320
317 319 317 317 319 319 317 315 313 313 314 315 315 315 317 315 315 315 315 316 316 316 319 320 323 324 322 322 326 326 326 330 330 326 320 315 314 316 314 314 316 318 321 323 324 326 327 328 329 330 331 331 330 330 330 331 331 331 330 331 331 330 330 330 329 329 329 329 329 329 330 331 332 332 332 332 331 331 331 331 330 330 330 330 330 330 329 328 327 327 326 326 325 323 322 321 320
315 320 320 317 318 320 319 317 315 313 316 317 314 315 320 318 315 315 314 316 316 316 321 322 323 325 324 324 326 325 326 326 325 324 321 316 315 315 314 312 312 313 315 318 321 323 325 326 327 329 329 330 330 329 329 330 330 330 330 330 330 329 329 329 328 328 328 328 328 328 327 327 328 329 330 329 329 330 331 331 331 330 329 329 328 328 329 329 328 328 327 326 325 324 323 321 320
311 320 324 319 321 323 322 320 317 314 317 318 316 316 320 318 314 316 317 317 317 317 320 320 319 321 321 321 322 322 322 323 322 320 318 316 314 314 314 313 312 311 311 313 316 320 323 324 326 327 328 329 329 329 328 329 329 329 329 329 328 328 327 327 327 327 327 326 327 326 326 325 326 327 327 327 327 328 330 331 331 330 329 328 328 328 328 328 328 328 327 325 324 324 323 321 320
315 324 329 322 321 326 325 323 318 317 318 318 317 316 318 319 317 317 318 317 316 317 318 319 317 317 320 320 321 324 324 325 326 324 321 316 313 313 313 313 312 311 311 311 312 316 319 321 324 325 326 327 327 328 328 328 328 328 328 327 327 327 326 325 326 326 326 325 325 326 326 325 326 326 326 327 327 327 328 329 329 329 329 329 329 329 328 328 327 327 327 326 325 324 323 321 320
321 326 327 323 321 325 325 322 319 319 321 319 319 317 318 321 319 317 317 315 315 317 317 318 316 317 322 322 323 325 325 324 324 325 322 315 312 311 312 312 313 313 311 311 311 312 314 317 320 323 324 324 325 326 326 326 326 326 326 326 326 326 325 325 326 325 325 325 324 325 325 325 325 325 325 326 326 327 327 327 328 328 329 328 328 327 327 327 327 327 326 325 324 324 323 322 321
322 324 325 324 324 325 323 322 319 319 321 322 322 319 317 321 319 315 317 315 316 317 315 317 318 322 325 324 324 323 321 322 319 317 316 314 312 312 313 314 314 314 313 312 311 311 312 314 317 320 321 322 323 323 324 324 324 325 325 325 325 324 324 324 325 325 325 324 324 324 323 323 323 323 323 323 323 324 325 325 326 326 326 326 326 325 325 326 326 326 325 325 325 324 324 323 322
322 323 323 322 322 321 320 321 319 318 322 323 322 318 315 320 320 315 317 316 317 317 316 321 322 323 323 322 321 319 320 323 321 316 315 315 314 314 315 315 314 314 313 312 311 310 312 315 316 318 320 321 321 322 323 323 323 324 324 324 324 323 323 323 324 324 323 323 322 322 321 321 321 322 322 322 321 320 321 322 323 323 323 323 323 323 323 324 325 324 324 324 324 323 323 322 322
323 323 322 321 320 318 317 318 317 320 323 319 319 320 318 319 318 314 316 316 315 316 317 321 322 322 322 320 318 317 318 321 322 321 319 316 314 314 315 315 314 313 313 314 313 312 313 315 316 318 320 321 321 322 323 322 322 324 324 323 323 323 323 323 322 322 321 321 320 319 319 319 320 321 321 320 319 318 318 318 319 320 320 319 319 319 319 321 322 322 322 322 322 322 322 322 321
323 322 319 320 320 318 318 320 319 321 321 314 314 318 319 319 315 312 315 314 313 317 319 322 322 321 321 319 318 318 318 320 322 323 322 318 315 314 315 315 315 315 315 315 315 315 316 317 318 320 321 321 320 321 322 322 321 322 323 322 322 322 322 322 322 322 321 321 321 320 319 319 319 319 319 318 318 317 316 316 316 316 316 316 316 316 316 317 317 318 318 319 319 320 320 320 320
319 320 320 321 320 318 318 320 320 321 318 313 313 316 319 318 315 314 315 313 315 319 323 324 322 321 320 318 319 320 319 321 323 324 324 322 317 315 316 317 317 317 317 317 318 318 319 319 320 320 320 320 320 320 321 321 320 320 321 321 321 321 321 322 321 321 321 321 321 321 320 319 319 319 318 318 318 318 317 316 316 315 314 314 314 315 315 315 315 315 315 316 317 317 318 318 318
317 319 320 321 319 319 320 320 322 324 319 313 312 316 321 318 316 316 315 315 317 317 319 321 320 320 319 317 318 320 320 321 323 324 324 321 316 316 317 317 317 318 318 318 319 320 320 320 319 318 319 319 319 319 319 319 318 318 318 319 320 320 320 320 320 320 320 320 320 320 319 319 318 318 318 318 317 317 317 316 315 315 314 313 313 313 314 314 314 314 314 314 314 315 315 316 316
318 320 321 320 320 322 322 318 319 322 320 316 315 320 323 318 316 317 315 315 316 314 316 317 318 319 318 317 318 320 320 321 323 323 322 319 315 315 316 315 316 317 317 318 319 320 320 319 318 318 318 319 319 319 319 319 319 318 318 319 319 319 319 319 319 318 318 319 319 318 317 317 316 316 316 316 316 316 315 314 314 314 314 314 313 313 313 313 313 313 313 312 312 313 313 314 314
318 319 320 320 321 324 322 316 314 315 317 319 318 319 318 314 315 317 316 315 313 313 315 314 316 319 318 320 322 322 322 322 322 322 321 317 314 314 314 314 314 315 315 316 317 317 318 318 318 317 318 318 319 319 319 319 319 318 318 318 317 317 317 316 316 316 315 315 314 314 313 313 313 313 313 313 313 312 312 312 312 312 312 312 313 312 312 312 311 311 311 311 311 310 310 311 311
319 320 320 316 318 322 319 315 316 315 314 317 318 317 316 314 316 318 315 314 313 313 313 313 316 318 318 323 325 323 323 322 321 320 318 314 311 312 312 312 312 312 313 314 314 315 315 315 315 315 315 316 316 316 316 316 315 315 314 314 313 313 312 312 313 313 312 311 310 310 311 311 311 311 311 310 310 310 310 310 310 310 310 311 311 311 311 310 310 310 309 309 309 309 309 309 309
318 318 319 317 318 320 316 314 317 318 315 316 318 317 315 315 316 316 316 315 314 313 312 312 316 317 318 324 325 323 323 322 320 320 318 314 310 310 310 310 310 310 310 311 312 312 312 312 312 312 312 312 312 313 312 312 312 311 311 310 310 310 310 310 310 310 310 309 309 310 309 309 309 309 309 308 308 308 308 309 309 309 309 308 308 308 308 308 308 308 308 308 308 308 308 309 309
315 315 316 317 318 318 318 316 315 317 316 316 318 317 319 320 317 315 318 317 315 313 313 312 314 316 317 322 324 322 322 322 319 319 319 314 310 309 309 308 309 308 308 309 310 310 310 310 310 310 310 310 310 310 310 310 310 310 309 309 309 309 309 309 309 309 309 309 308 308 308 308 307 307 307 307 307 307 307 307 307 307 306 306 306 306 306 306 306 306 306 306 306 306 307 307 307
313 315 315 315 315 316 319 319 315 315 316 317 316 315 321 323 317 314 315 315 315 314 313 313 314 315 317 321 323 321 321 321 319 320 319 313 309 309 309 308 308 308 308 308 308 308 308 308 308 308 308 309 308 309 309 309 308 308 308 308 308 308 308 308 308 308 308 308 307 307 307 306 306 306 306 306 306 305 305 305 305 304 304 304 303 303 303 303 303 303 303 304 304 303 303 303 303
315 314 314 314 314 315 317 318 316 314 316 318 316 317 324 324 317 316 314 314 318 317 315 315 316 315 317 321 322 320 319 320 319 319 318 311 308 308 308 308 308 308 308 307 307 307 307 307 307 307 307 307 307 307 307 307 307 307 307 307 307 307 307 307 307 307 306 306 306 306 306 306 306 305 305 304 303 303 302 301 301 300 300 300 299 299 299 299 299 299 299 300 300 300 299 299 299
Wind_Speed
8 7 8 7 8 9 7 5 2 2 3 2 2 3 3 5 5 6 6 4 4 4 4 6 6 6 2 3 5 9 8 6 3 1 3 7 17 17 18 22 22 20 17 17 17 16 14 12 12 11 11 12 13 14 14 13 14 14 13 13 12 11 10 10 11 12 13 15 16 16 16 16 16 16 15 15 17 18 17 18 17 18 19 18 18 18 18 18 18 18 18 18 17 17 16 16 17
7 7 10 9 9 8 3 2 2 2 4 2 3 5 4 3 4 6 5 4 6 4 4 6 5 4 1 1 3 6 9 9 6 5 7 16 18 17 20 21 21 21 18 18 17 15 14 13 12 12 11 12 13 14 14 14 15 14 13 13 13 12 10 11 11 14 15 15 16 15 15 15 15 15 15 15 17 17 17 17 16 18 18 17 17 17 17 17 17 18 17 17 17 16 16 16 16
7 6 9 9 8 6 2 2 2 3 3 2 4 4 5 4 4 7 7 9 9 6 6 5 4 2 3 0 2 4 6 6 9 8 10 18 15 16 21 20 20 19 18 19 16 14 15 14 13 12 12 12 12 13 16 16 15 13 13 13 13 11 10 10 12 16 16 15 16 15 15 15 15 15 15 15 16 17 16 16 16 18 18 17 17 16 16 16 17 17 17 17 16 16 15 15 15
8 6 8 8 5 4 3 2 3 4 2 2 3 3 5 6 8 10 9 9 8 6 5 3 2 1 3 3 3 4 6 5 9 8 8 15 16 20 22 20 20 18 18 18 15 14 15 14 13 12 11 12 12 13 16 16 14 13 13 12 12 11 10 10 12 16 16 15 16 15 14 14 15 15 14 15 16 16 16 16 16 17 17 17 16 16 16 16 16 16 16 17 16 15 15 15 15
8 7 8 8 3 1 2 1 2 2 3 1 3 4 5 9 10 9 7 7 6 5 3 3 1 1 1 3 3 2 4 5 9 9 9 16 21 22 22 20 20 18 18 18 15 14 15 14 12 12 11 12 12 13 14 15 15 13 13 12 11 10 9 10 11 15 17 15 15 14 13 14 14 14 14 15 15 15 15 15 15 16 16 16 16 16 16 15 16 16 16 16 16 15 15 16 15
8 9 9 8 2 1 1 2 3 0 3 2 4 3 6 10 9 9 8 6 5 5 3 2 2 2 3 3 5 4 2 5 8 10 13 19 23 22 22 21 19 18 17 18 16 14 16 14 12 13 12 12 11 12 13 14 15 14 13 12 12 10 9 10 11 16 16 14 14 13 13 14 13 13 14 14 14 14 14 14 15 16 16 15 15 15 15 15 15 15 15 15 14 14 15 15 15
9 7 4 5 2 0 2 4 4 2 3 4 5 3 7 10 9 9 8 5 4 4 3 2 2 1 3 3 5 7 7 7 9 11 17 20 22 21 22 20 19 18 17 17 14 14 17 14 13 13 11 11 11 11 12 14 15 15 13 12 13 11 8 10 13 15 14 13 14 13 13 13 13 13 14 14 14 14 14 15 15 15 15 15 15 15 14 14 14 13 13 13 13 13 13 13 14
8 4 1 2 2 2 3 5 2 3 2 4 5 4 7 9 7 8 6 5 3 3 1 1 2 1 2 3 3 5 10 13 14 16 21 20 20 21 19 18 19 18 18 16 13 15 17 13 13 12 12 11 10 11 11 14 14 15 15 13 13 11 9 9 12 13 12 12 13 13 13 13 12 13 13 13 13 13 14 14 15 14 14 14 14 14 14 13 13 12 13 13 13 12 12 12 13
7 4 1 1 2 2 3 5 1 5 4 4 4 3 5 8 6 7 6 5 4 5 5 3 2 1 2 6 5 6 8 14 18 19 20 19 19 20 17 18 18 18 19 15 12 16 17 13 12 12 12 10 10 10 10 12 13 14 15 14 13 11 10 10 10 10 10 11 11 12 12 12 12 12 12 12 11 12 11 12 13 13 13 12 13 14 13 13 13 12 12 12 11 11 10 10 12
4 4 2 1 3 3 3 5 1 4 5 6 5 3 4 5 5 7 5 6 6 5 6 4 3 1 1 7 5 5 9 13 19 18 18 19 18 17 16 17 18 17 17 14 13 17 17 14 13 12 12 10 10 9 9 10 12 12 13 13 13 12 12 11 10 9 9 8 8 10 12 12 11 12 12 12 12 11 11 12 12 12 11 11 12 12 12 12 12 11 11 11 10 10 10 10 13
2 4 1 1 4 3 5 4 3 4 5 6 5 4 3 3 3 5 6 6 7 6 5 3 3 3 1 6 2 6 14 15 18 19 18 18 17 15 16 18 17 15 15 14 13 15 17 14 13 12 11 10 9 9 9 9 10 10 11 12 12 11 11 11 10 9 9 8 8 9 13 13 11 11 10 12 12 11 11 12 11 11 11 11 10 10 11 12 11 11 10 10 10 10 11 12 13
2 3 2 1 5 4 3 2 5 5 6 5 4 3 3 3 2 4 7 6 6 7 5 4 1 1 2 4 2 9 15 15 18 20 19 18 17 14 15 18 17 14 13 13 12 12 16 15 13 13 11 10 9 8 8 8 8 9 10 10 10 10 10 10 9 8 8 8 7 8 14 14 11 10 10 12 12 12 11 11 11 10 11 11 10 10 10 11 11 10 10 10 10 10 11 12 13
3 3 2 3 5 2 1 2 6 6 4 5 5 4 4 4 4 4 7 6 5 6 5 5 1 1 2 4 4 9 12 15 19 20 20 19 16 12 13 18 16 14 13 12 11 11 14 15 13 13 11 10 9 8 8 7 8 8 9 9 9 9 8 8 7 7 6 6 5 8 15 14 11 11 11 12 11 11 9 9 10 10 10 10 9 9 10 11 11 11 10 10 10 10 12 12 12
2 3 2 3 5 2 1 3 5 4 3 4 6 5 5 3 3 3 5 6 4 3 3 3 1 1 2 4 4 5 10 18 21 21 20 18 16 10 12 18 15 15 15 12 11 11 12 14 13 12 11 10 9 8 7 7 7 7 8 8 8 8 7 7 6 5 4 4 4 6 12 13 11 11 11 10 10 10 9 8 9 9 8 7 7 7 9 11 11 10 10 9 10 10 12 12 10
1 4 2 2 5 3 1 1 4 4 3 4 5 6 5 1 2 3 2 3 3 2 3 4 3 2 1 3 4 6 15 22 21 21 19 17 16 9 11 17 14 14 16 13 12 12 12 13 12 12 12 10 10 9 8 7 6 6 7 8 7 7 6 6 5 5 4 3 3 5 8 11 11 11 10 9 10 9 8 8 8 7 6 5 6 7 8 10 10 10 9 9 9 10 10 10 9
1 3 2 2 4 2 1 1 2 3 3 4 5 6 6 2 3 3 2 1 4 1 1 3 2 2 3 4 8 16 23 24 22 22 19 17 15 10 11 13 13 13 15 13 13 13 12 13 12 11 12 11 10 9 8 8 7 6 7 7 6 6 5 5 5 4 4 4 4 5 7 10 10 10 9 9 10 9 7 7 6 4 3 3 4 6 8 9 9 9 9 9 8 9 8 7 7
1 1 1 3 3 3 3 3 3 4 5 5 5 6 7 3 2 1 2 0 5 3 1 4 4 4 5 7 16 25 26 24 23 23 20 18 15 11 10 11 12 12 13 14 13 14 14 15 14 11 13 12 10 9 8 9 9 8 7 6 6 5 5 4 4 4 4 4 5 6 8 9 10 9 8 8 9 8 6 6 5 3 2 2 3 6 7 8 8 8 9 9 8 6 5 4 4
1 1 2 4 4 4 5 4 5 7 6 5 7 6 6 6 2 2 2 1 4 5 3 5 8 8 8 12 20 25 25 25 24 23 21 19 17 14 12 13 14 14 14 15 14 14 14 15 15 12 13 13 12 12 10 9 10 9 8 7 7 6 5 4 4 3 4 4 5 7 8 6 6 7 6 6 8 8 6 5 5 2 1 1 2 3 6 7 7 7 8 7 7 6 5 4 4
2 2 2 4 4 2 3 5 5 7 9 7 7 6 4 7 7 3 3 5 5 5 5 6 7 7 8 12 18 21 22 23 23 23 22 20 19 17 16 15 16 16 16 17 16 16 16 15 16 14 14 15 14 14 12 10 10 10 9 8 7 7 6 5 4 3 4 4 5 8 8 4 2 5 6 5 7 8 7 6 5 3 1 1 2 2 4 6 6 6 6 7 8 7 6 4 5
3 3 3 5 2 3 5 8 7 6 10 9 7 5 2 6 7 3 4 6 7 6 6 7 7 7 8 10 15 18 18 20 21 21 21 20 19 19 18 18 19 19 18 18 17 17 18 17 16 16 15 16 15 14 13 11 11 10 8 7 7 6 7 7 4 3 4 3 5 8 7 5 4 5 8 6 7 7 7 7 6 5 3 2 3 2 2 4 6 5 5 5 7 6 5 1 4
2 3 3 4 1 4 6 8 7 6 7 8 7 5 4 5 5 4 5 5 6 7 8 10 10 12 11 10 13 17 17 18 19 19 19 20 19 19 18 19 19 18 19 19 18 18 19 18 17 17 15 16 16 14 12 11 10 11 10 9 7 6 6 6 6 5 6 6 5 7 5 8 8 7 8 8 9 8 6 7 7 6 4 2 3 1 2 2 3 4 3 3 5 4 3 4 3
2 5 3 5 3 3 5 6 6 4 3 7 8 6 5 4 3 5 6 4 3 2 4 7 8 14 15 13 14 15 16 16 18 18 18 19 19 19 19 19 19 18 18 19 19 19 19 20 18 17 17 16 17 15 13 11 11 13 13 11 9 9 7 6 8 8 7 9 7 7 7 9 9 8 8 9 10 8 6 5 5 4 2 1 1 1 2 3 2 1 2 2 3 2 2 5 6
1 6 2 5 6 3 4 4 4 4 3 7 7 6 6 5 4 5 6 2 3 3 5 6 7 15 18 17 15 13 13 14 17 19 20 21 21 20 20 20 21 21 21 21 20 19 20 20 19 19 18 17 17 16 14 14 13 13 14 12 10 12 11 8 10 11 8 10 9 8 8 9 9 9 8 8 9 8 8 6 3 2 3 5 3 3 4 7 4 3 3 2 2 3 6 5 6
2 6 2 3 6 5 4 4 3 4 3 3 3 6 6 6 4 2 4 3 7 5 6 8 11 18 18 15 13 13 15 16 19 21 21 22 22 22 20 20 21 22 22 22 21 20 21 21 20 20 20 18 17 17 16 15 15 14 14 13 12 13 14 12 12 12 10 10 10 10 10 9 9 9 8 8 9 10 10 8 6 5 7 9 7 6 8 10 6 5 5 4 4 6 8 7 6
5 5 1 2 4 5 4 5 3 5 3 3 3 5 5 4 3 2 5 5 8 6 7 7 9 13 13 11 11 11 13 16 18 19 20 20 21 21 20 19 19 21 22 22 21 21 22 23 21 21 20 19 18 18 17 16 15 15 15 15 15 14 15 14 14 13 12 12 12 11 12 11 10 9 10 9 9 11 11 10 10 9 11 11 10 8 10 11 8 7 7 7 7 7 8 8 7
5 3 3 3 3 4 3 4 3 2 1 1 3 4 4 3 2 2 7 6 9 7 8 7 7 8 8 9 10 10 10 13 17 19 20 20 20 21 21 19 18 21 22 22 22 21 22 23 22 21 21 20 20 19 19 18 16 16 16 16 16 16 16 15 14 15 15 15 14 13 14 14 12 10 11 11 10 11 11 12 12 12 12 12 11 11 11 11 9 8 9 8 9 8 8 8 8
1 3 5 4 3 2 0 3 4 0 1 1 2 4 4 1 1 3 4 8 10 8 8 7 7 6 7 7 8 11 11 14 18 19 19 19 19 21 22 21 19 19 21 22 23 22 22 23 24 23 21 20 20 20 20 19 18 18 18 17 16 16 17 16 15 16 16 15 15 14 14 15 15 12 11 12 11 11 12 13 14 14 13 12 12 12 12 12 10 10 10 10 9 9 9 9 10
2 6 6 3 2 3 1 3 4 1 2 1 2 4 4 1 1 4 4 7 8 9 8 7 7 6 7 7 7 9 11 15 20 18 17 18 19 21 22 23 22 18 19 21 22 22 22 24 25 25 24 22 21 21 21 20 18 18 17 17 18 17 17 16 16 17 16 15 15 15 14 15 16 15 12 12 12 12 13 13 14 14 14 13 14 14 13 12 12 12 12 12 11 10 10 10 11
3 4 3 4 2 2 2 3 4 1 0 2 1 2 1 2 6 7 6 7 6 7 8 8 7 7 7 7 6 7 9 15 19 18 19 20 21 22 23 24 24 22 20 20 21 21 22 23 23 24 25 25 24 23 22 21 20 18 18 18 18 18 18 18 17 17 16 16 16 17 17 15 16 16 14 12 13 14 14 14 14 14 14 14 14 14 14 14 14 14 14 14 13 13 13 12 12
3 4 2 4 2 2 5 4 4 2 1 1 1 1 4 7 13 9 7 7 7 6 7 8 6 6 6 7 6 6 9 13 16 18 20 21 22 23 23 24 25 24 22 21 21 22 22 22 22 23 24 25 26 25 22 21 20 19 18 18 18 17 18 19 19 18 17 17 18 18 19 19 17 17 16 13 13 16 16 15 15 15 15 14 15 16 15 16 17 16 15 16 16 16 16 16 16
3 4 3 3 3 3 6 5 6 3 1 1 2 2 5 4 7 6 7 7 8 7 7 7 6 6 6 6 7 6 8 12 15 19 21 21 22 23 23 23 24 25 23 22 22 23 23 23 23 23 24 25 26 25 23 21 19 18 19 18 18 18 18 19 19 19 19 18 18 18 20 21 20 17 17 15 13 15 17 16 16 17 17 16 16 17 17 18 19 18 17 17 18 18 18 18 18
3 4 3 3 3 2 3 3 6 4 1 3 3 3 5 2 2 5 4 5 6 6 6 7 7 7 7 6 7 6 7 12 16 19 21 21 22 22 23 24 24 25 24 24 23 23 23 24 24 24 24 26 26 24 23 22 20 17 18 18 18 18 18 19 19 20 20 20 20 19 19 21 22 20 17 17 15 14 16 17 17 18 18 18 18 18 18 18 19 20 19 19 19 19 19 18 18
3 4 3 4 5 3 1 2 2 3 3 4 3 3 3 2 4 3 3 4 5 5 6 7 7 8 7 6 6 6 6 9 12 16 20 22 22 22 23 24 25 26 25 25 24 24 24 23 25 25 24 26 26 25 23 23 22 19 18 18 17 17 18 19 19 19 20 20 21 20 20 20 21 22 20 19 18 17 17 18 18 17 17 19 19 18 18 19 20 20 20 21 20 20 18 17 17
3 3 2 4 6 4 3 1 2 2 3 4 5 4 4 3 5 5 5 6 6 6 6 7 6 7 7 7 7 7 7 7 9 15 20 22 23 22 23 24 25 26 26 25 24 26 26 24 25 25 24 25 26 25 23 23 24 22 20 18 18 17 18 19 19 19 20 20 21 21 22 21 20 21 22 21 21 21 21 20 20 19 18 19 21 22 22 22 21 21 22 22 21 20 19 17 15
4 3 3 4 5 5 4 2 2 6 3 3 6 6 9 7 4 6 6 6 7 7 7 6 6 6 7 7 7 7 8 7 9 16 22 22 24 24 23 23 24 25 26 25 24 24 26 25 25 26 24 23 25 24 23 22 22 22 21 19 18 19 19 20 19 19 20 20 21 22 22 22 21 21 22 22 21 22 23 22 21 20 20 20 21 23 23 21 20 20 21 22 21 21 20 19 17
7 8 6 5 5 5 3 2 2 6 4 3 6 7 9 9 7 6 6 7 7 7 6 5 6 6 6 6 7 7 8 7 11 20 24 23 24 25 24 23 24 25 25 25 24 23 25 25 25 26 25 23 23 23 23 23 23 21 21 21 21 20 20 20 19 19 19 19 19 20 21 22 22 22 22 22 22 23 24 23 21 20 19 19 20 22 21 20 19 19 19 21 22 21 21 20 19
5 8 7 7 5 3 2 4 1 3 3 5 7 7 8 8 9 7 7 8 7 7 7 6 6 6 6 7 7 8 8 6 9 16 21 24 24 24 24 23 24 24 24 25 26 25 26 27 26 26 26 24 24 25 25 25 26 24 23 24 24 23 21 20 19 19 19 20 19 19 20 22 23 22 21 21 23 24 24 24 22 19 18 20 21 22 23 22 21 21 20 21 22 22 22 20 19
5 3 6 7 5 2 2 3 3 2 1 5 8 9 11 10 9 8 6 8 8 8 8 8 8 7 7 7 8 8 6 4 7 10 15 21 22 22 23 23 24 25 25 25 27 28 27 27 27 26 27 27 26 26 26 26 27 26 25 24 23 22 21 20 20 20 20 20 20 20 19 19 20 20 19 19 21 22 24 25 24 22 21 22 23 24 25 25 24 24 22 22 22 22 22 21 20
5 2 2 4 3 3 2 3 3 2 1 2 3 5 9 9 8 8 7 8 8 9 10 9 9 9 8 8 8 8 7 5 7 8 11 17 19 21 22 22 24 25 26 26 26 27 27 27 27 26 26 27 28 27 26 26 25 24 22 21 20 19 18 18 18 18 18 17 18 19 20 20 20 20 21 21 21 22 23 25 24 24 25 25 25 25 26 26 24 22 23 23 21 20 20 20 21
2 2 1 2 3 4 1 1 2 1 1 1 3 3 6 7 7 7 9 11 9 8 11 10 9 10 9 9 8 8 9 8 8 7 9 14 17 19 21 22 24 23 24 25 26 26 27 28 27 27 26 26 28 28 26 25 23 21 20 17 17 18 17 17 17 17 18 19 18 17 18 19 19 19 21 22 22 21 22 23 22 24 27 27 25 24 25 26 24 22 23 23 22 20 20 20 21
3 3 3 3 2 4 3 3 4 1 1 1 2 5 5 6 7 9 9 10 10 9 9 10 9 9 8 5 5 6 8 8 9 8 8 12 16 19 21 22 23 23 23 25 27 27 27 28 27 27 26 25 26 27 26 24 22 22 20 17 16 16 15 16 17 18 18 19 19 19 19 19 19 18 17 18 17 18 20 21 22 23 25 25 25 25 26 25 24 24 25 25 25 23 22 22 21
3 5 5 2 2 5 8 5 5 2 2 2 3 1 6 5 9 11 8 8 10 9 9 10 8 8 7 5 6 6 5 4 6 6 6 10 15 18 19 20 21 23 25 25 25 26 25 25 26 26 25 25 24 25 26 25 23 23 23 22 20 19 17 16 17 17 16 16 16 17 18 18 20 21 20 18 17 18 18 19 20 20 20 21 23 25 27 27 27 27 27 27 26 25 23 22 22
3 4 4 3 5 7 8 6 4 2 2 2 2 4 5 4 4 8 7 8 9 7 7 9 8 7 7 7 7 6 6 6 5 4 4 6 12 15 17 19 21 23 23 23 22 23 22 22 24 24 24 25 24 23 25 25 24 23 23 23 22 21 20 17 15 15 15 13 12 12 13 12 13 16 18 19 19 20 20 19 19 18 18 21 23 25 27 29 29 29 26 25 24 23 23 23 23
3 2 3 4 7 6 7 6 3 2 1 2 1 2 2 5 5 5 2 6 6 6 7 9 7 8 8 7 7 7 6 6 6 6 5 6 9 13 14 16 18 19 19 20 21 22 21 20 22 23 23 23 24 23 24 26 25 23 22 22 21 19 18 14 10 11 13 12 11 10 10 10 10 11 13 14 15 17 18 18 18 17 18 19 20 24 25 26 27 25 23 21 21 23 24 26 25
3 2 3 2 4 5 6 5 3 1 3 1 3 2 1 5 6 4 1 4 5 7 9 10 9 8 8 7 6 6 5 5 4 5 6 7 10 11 12 13 14 16 17 19 20 21 20 20 20 22 22 22 23 23 23 25 24 23 22 21 20 17 15 12 9 9 9 10 11 11 10 11 11 12 13 14 15 16 16 16 15 15 15 14 15 17 18 19 21 22 20 20 22 23 25 25 25
3 2 4 5 3 3 3 3 3 2 1 4 5 4 2 5 5 4 2 3 6 8 8 8 8 7 6 6 5 5 4 4 3 4 4 5 9 10 10 12 13 13 15 17 19 19 19 20 21 21 21 20 21 22 23 24 23 22 21 21 19 17 15 13 11 10 10 10 11 10 10 10 10 11 12 14 15 17 17 17 17 16 17 17 18 18 15 14 15 17 19 21 22 23 24 24 25
4 4 5 5 4 4 3 0 3 2 2 4 4 6 5 4 5 5 4 4 5 5 4 2 5 6 6 5 5 4 4 5 4 5 4 5 7 8 9 11 12 12 13 14 16 19 20 21 21 21 20 20 20 22 22 23 21 20 19 19 17 15 14 14 13 12 11 11 11 10 10 9 9 9 10 11 12 14 16 16 17 17 18 20 21 20 19 17 15 16 16 18 20 21 22 22 24
4 3 5 4 3 4 3 2 2 1 3 3 3 1 3 4 5 3 3 3 3 2 2 4 6 6 6 5 5 5 4 5 6 5 5 6 7 8 10 11 11 12 13 14 16 19 20 20 21 21 19 19 20 21 21 21 21 18 17 17 16 15 13 13 12 10 9 9 9 8 7 8 7 8 9 10 11 11 12 13 14 15 16 16 17 17 18 20 20 20 20 19 19 19 19 20 22
1 3 6 4 1 1 1 1 1 3 4 2 2 3 1 5 6 6 7 5 5 4 2 5 7 7 6 6 5 5 4 4 6 5 5 6 6 9 12 12 13 14 15 16 16 18 19 20 21 22 20 19 21 21 20 20 20 18 16 15 15 14 14 12 10 8 7 6 6 6 5 5 5 6 8 8 8 8 7 8 10 11 12 12 12 12 12 14 16 18 18 18 18 18 19 20 21
3 5 5 5 3 2 2 3 2 3 3 3 3 1 2 4 5 9 13 10 4 4 5 6 7 7 6 6 5 5 5 4 5 6 6 5 7 10 13 13 14 15 16 16 17 18 19 20 21 21 20 19 20 21 20 19 19 18 17 15 14 13 12 12 11 9 8 6 5 5 4 3 2 3 4 5 4 4 5 6 7 8 9 9 9 8 8 9 10 12 13 14 14 14 16 17 19
5 5 5 5 4 3 4 3 3 3 1 2 3 1 3 3 3 6 8 3 2 5 5 6 7 6 6 5 5 5 5 4 4 5 5 5 8 11 12 13 14 15 16 17 17 18 19 20 20 20 20 19 20 20 19 17 16 15 15 14 13 11 11 10 9 8 8 7 7 6 6 5 5 4 4 4 4 4 5 6 6 6 8 9 8 7 8 8 9 10 11 12 12 12 12 14 15
4 2 4 4 4 3 3 2 3 4 1 1 1 2 4 5 4 5 3 4 4 5 4 5 6 5 6 5 5 5 5 5 5 5 5 6 9 12 12 13 14 15 16 17 17 18 18 19 20 19 19 19 19 18 16 15 15 14 13 13 12 12 11 10 9 8 9 9 9 8 7 6 7 7 7 8 8 9 9 9 9 8 7 7 8 8 8 8 9 10 11 12 13 13 14 15 15
2 2 3 4 2 6 4 1 0 3 0 3 3 3 5 3 6 6 5 5 3 4 4 5 6 6 6 6 5 5 5 5 5 5 5 6 10 12 12 13 14 15 16 16 16 16 17 19 21 20 19 19 19 18 17 16 16 15 14 14 13 12 12 11 10 9 8 7 6 6 6 5 6 6 7 8 8 8 8 8 8 7 6 6 6 7 8 9 9 10 11 12 13 14 15 16 16
3 3 4 2 1 3 3 1 1 2 2 3 4 5 5 3 4 3 4 5 5 6 6 5 5 6 6 6 6 6 6 6 6 6 6 7 10 11 12 12 13 14 15 16 16 16 16 18 20 20 20 19 19 18 17 16 15 15 14 13 12 11 10 10 9 7 6 5 4 4 4 3 3 3 4 4 5 5 5 5 5 5 5 6 7 7 8 9 10 10 10 11 12 12 14 15 16
3 3 2 2 1 1 1 3 1 2 3 3 4 6 4 4 4 1 3 7 7 7 7 7 7 7 6 6 6 7 6 6 6 6 5 6 9 11 12 12 12 13 14 15 16 16 17 17 18 19 19 18 18 17 17 15 14 14 13 12 11 10 10 9 8 7 6 5 5 4 3 2 1 1 2 3 4 4 4 4 4 4 5 6 6 6 7 8 9 10 11 11 11 11 13 15 16
1 1 2 2 2 3 3 3 2 2 3 3 3 4 4 5 6 6 7 9 9 9 8 9 9 8 7 6 7 7 6 6 5 6 5 6 9 11 11 12 13 13 14 14 15 15 16 16 17 18 18 17 17 16 16 16 14 14 14 13 12 11 11 10 9 8 7 7 6 5 5 4 4 4 5 5 6 5 5 5 5 6 6 6 6 6 6 7 8 9 10 11 11 12 13 15 17
2 1 1 1 1 2 1 2 2 3 3 3 3 3 5 5 5 8 10 9 10 10 9 9 8 8 8 7 7 7 6 6 6 6 6 6 10 12 12 12 13 14 14 14 15 15 15 15 15 16 17 17 16 16 15 15 15 14 14 14 13 12 11 11 10 9 9 9 9 8 8 7 7 8 8 8 8 8 8 8 8 8 8 8 8 8 8 9 9 10 10 10 12 13 14 15 16
4 4 5 6 4 3 1 3 3 3 2 3 3 3 5 5 2 2 3 3 5 6 8 9 8 9 9 8 8 8 8 7 6 6 6 7 10 12 13 13 13 14 15 15 15 15 15 15 15 15 16 16 16 15 15 15 15 15 15 15 14 14 13 13 13 13 12 13 12 11 11 11 11 11 11 11 11 10 10 11 10 11 10 10 11 11 11 11 11 11 12 12 13 14 15 16 17
Wind_Direction
305 310 296 281 286 300 278 232 252 241 219 252 144 110 70 82 104 107 112 153 102 66 50 70 63 41 34 339 74 82 41 33 21 11 108 140 147 144 133 131 134 132 139 147 146 136 129 127 113 105 96 91 92 94 97 101 103 99 95 94 89 84 82 89 98 98 92 87 82 76 75 76 77 78 78 77 75 75 74 75 74 74 73 71 71 71 71 71 71 70 71 72 72 74 75 76 83
301 307 293 281 273 278 270 206 247 246 211 210 85 86 104 114 134 126 124 122 92 91 81 74 68 51 358 290 112 91 50 47 68 82 109 132 134 130 133 134 133 134 143 146 141 135 134 130 116 109 101 99 97 99 102 104 107 102 97 95 93 90 89 92 98 103 96 89 86 82 82 81 80 79 80 81 79 78 75 74 73 74 73 72 73 72 72 72 72 72 72 72 73 75 78 77 80
291 283 281 278 256 245 274 253 238 265 241 139 84 105 138 129 106 101 93 88 93 103 87 78 85 49 301 311 65 68 76 71 86 92 118 133 133 134 139 136 134 137 140 139 138 140 138 131 120 114 107 104 99 101 105 106 105 101 98 95 97 95 90 91 99 105 98 92 91 87 86 84 82 82 85 83 79 77 74 71 70 72 72 73 74 73 73 72 73 73 73 72 72 74 77 80 79
290 270 273 285 259 221 259 231 227 277 303 94 110 159 147 111 90 82 86 93 101 111 103 114 114 42 338 19 42 76 99 87 96 107 127 141 143 140 140 137 134 134 136 137 142 146 141 134 125 118 112 106 103 103 109 111 108 103 100 96 98 96 89 88 97 103 99 95 93 90 88 86 85 83 85 83 78 77 75 74 73 73 73 75 75 73 73 72 72 72 74 73 72 73 76 81 82
293 276 265 274 278 241 261 247 265 308 351 39 119 154 134 103 100 95 93 95 106 112 117 147 110 72 64 16 16 74 103 96 113 120 113 132 142 141 140 138 135 134 138 142 147 150 145 138 130 123 115 110 110 107 111 115 113 108 102 98 97 94 88 89 97 102 99 97 95 93 90 88 89 86 84 82 80 79 79 79 76 75 75 77 78 76 75 74 75 75 77 76 75 76 78 83 85
304 290 259 248 267 347 292 258 241 197 356 19 94 113 106 100 107 105 97 85 82 74 38 120 109 87 110 55 50 50 69 115 129 124 113 129 142 141 141 139 136 137 139 145 151 153 147 141 134 126 118 116 113 110 112 114 118 115 105 104 103 95 90 93 101 105 101 97 97 96 94 92 92 92 90 87 83 81 82 80 77 75 75 77 79 79 79 79 79 80 80 79 79 80 82 87 91
301 300 246 223 250 317 263 257 232 139 359 19 83 84 90 101 112 112 115 104 78 76 11 22 112 96 124 115 78 52 50 99 118 117 125 136 141 141 143 140 137 139 139 147 155 153 148 143 138 129 122 120 114 112 112 115 122 120 112 110 108 102 96 93 100 105 102 97 98 98 99 97 94 96 96 90 87 87 86 82 79 79 78 76 77 76 76 78 79 81 81 82 83 83 85 89 95
280 287 208 219 247 212 256 263 262 96 57 34 59 52 91 114 125 128 143 141 136 143 130 28 93 14 160 133 98 80 64 88 102 112 130 137 139 143 145 141 140 140 140 150 156 152 150 146 141 133 127 121 118 115 113 118 123 123 120 116 110 108 103 93 97 100 100 101 101 100 102 100 97 99 98 91 88 89 85 81 82 84 83 78 76 76 76 77 79 82 83 84 83 85 86 92 98
253 232 281 257 240 206 253 261 176 91 115 97 72 31 90 128 139 137 141 125 134 143 145 166 118 55 138 98 90 115 86 95 109 116 130 136 141 146 145 143 143 139 143 153 153 151 152 151 147 138 131 124 123 120 116 121 124 125 126 124 117 114 111 102 101 101 103 106 104 107 110 103 100 101 100 94 91 92 85 83 85 85 85 82 81 81 81 81 81 84 84 84 82 83 84 93 101
241 205 274 252 249 203 225 256 134 93 104 98 105 112 106 139 148 141 136 117 128 126 123 128 109 251 148 107 103 124 119 117 118 123 132 137 144 147 146 145 144 140 147 154 151 156 156 153 151 141 136 131 128 124 121 121 124 126 128 130 129 127 124 116 109 107 108 108 101 111 119 110 104 105 103 99 94 97 94 90 90 87 84 85 89 85 85 85 84 85 84 84 81 79 78 87 97
265 205 239 269 264 215 207 216 133 108 112 99 97 120 132 142 154 146 129 116 129 112 101 117 126 230 180 104 94 120 131 134 126 131 137 141 147 149 147 144 144 142 144 149 152 161 159 155 155 146 142 137 133 131 128 125 125 126 129 135 138 138 135 128 119 114 111 110 99 107 126 117 106 110 110 109 102 98 97 96 95 89 85 84 88 87 87 88 85 86 85 84 79 76 79 86 91
266 225 190 236 252 225 222 181 122 113 122 125 111 131 161 139 171 153 125 120 132 121 137 177 134 232 168 101 112 132 137 143 136 137 141 145 151 152 148 142 148 147 136 142 152 162 162 159 158 155 150 142 138 138 137 135 132 129 131 135 142 144 141 138 133 127 120 119 103 103 127 123 117 126 119 116 112 105 105 104 98 89 88 85 83 86 89 89 87 88 88 86 81 81 85 88 88
253 245 188 231 260 238 235 88 100 109 132 142 131 149 170 151 179 158 129 138 144 142 151 168 130 8 117 91 119 142 139 144 140 140 144 148 154 154 147 144 153 157 143 144 154 161 166 165 163 163 159 151 145 144 146 147 144 138 133 132 138 144 144 144 143 140 134 128 110 108 130 133 136 138 126 123 119 116 116 109 101 94 94 94 89 91 95 95 93 90 91 91 89 89 89 88 89
270 275 213 230 266 242 112 93 109 126 140 117 119 149 167 165 179 139 129 140 138 151 121 106 96 33 113 118 140 155 139 143 142 143 146 149 159 155 139 146 154 161 156 155 158 161 167 169 171 171 166 161 155 151 153 156 156 147 137 132 133 136 138 142 146 146 144 138 116 113 135 145 145 142 138 134 126 123 120 112 112 109 103 97 90 93 101 99 97 97 97 99 97 93 92 89 87
272 301 275 245 264 237 59 88 124 134 134 115 136 156 147 48 1 67 93 123 98 110 99 69 39 29 111 132 153 149 139 144 143 143 146 150 162 150 131 148 152 159 165 166 167 166 166 171 176 176 172 170 168 164 161 161 163 157 145 136 133 130 129 132 134 136 134 135 125 113 135 151 149 146 149 142 135 134 129 126 128 123 107 82 78 94 104 98 100 104 104 102 96 92 91 88 85
227 311 316 270 267 217 186 160 90 101 128 130 153 154 128 46 1 51 347 81 104 115 99 84 44 25 54 70 117 131 139 145 144 144 143 148 161 151 132 150 152 155 167 173 177 175 171 174 180 178 174 176 176 173 172 168 165 164 156 145 142 135 129 125 120 124 122 122 124 116 131 156 157 152 152 147 145 145 147 148 147 142 113 68 78 98 100 97 103 104 107 106 95 91 89 85 82
261 319 287 264 249 180 185 175 129 120 125 128 155 162 135 124 9 80 251 173 118 142 102 83 71 57 67 94 118 128 139 144 145 146 141 144 158 157 149 163 164 162 172 181 186 183 179 177 183 184 175 178 177 175 182 175 169 170 168 162 157 151 144 137 128 127 129 124 123 124 129 150 164 163 157 152 154 158 167 167 158 149 102 80 83 98 97 96 103 100 106 109 99 90 77 76 74
275 207 220 246 238 188 181 164 138 132 133 147 167 183 152 143 161 128 178 176 124 142 135 94 74 70 89 111 121 129 140 145 149 152 146 147 157 164 172 179 175 173 179 190 195 190 186 179 184 186 176 180 179 180 189 180 172 175 179 179 175 172 163 156 157 150 151 139 126 125 117 126 157 164 167 165 168 176 183 185 171 156 94 83 64 94 97 93 99 96 101 103 99 87 64 62 38
217 229 220 239 249 196 146 108 100 128 141 152 162 198 188 148 161 149 168 175 154 155 156 138 108 93 108 121 126 133 142 150 158 159 154 156 163 169 177 183 181 179 181 194 198 193 195 187 187 188 180 184 185 185 191 185 178 178 183 188 189 187 183 180 179 166 159 146 133 124 112 118 146 161 187 194 183 190 190 194 192 198 244 9 9 47 89 97 101 99 101 96 97 85 64 51 14
234 228 243 245 209 58 60 83 78 105 133 145 153 184 183 138 146 149 194 178 170 187 172 159 156 147 148 144 140 141 149 160 167 167 163 164 170 173 177 183 185 183 181 192 198 195 198 195 193 193 185 185 189 189 188 188 181 178 184 188 197 200 192 190 188 163 159 181 149 119 122 174 196 199 212 212 197 203 199 202 208 218 247 295 312 327 91 113 116 116 112 103 110 98 80 77 328
239 211 238 276 159 83 54 81 80 76 120 141 140 142 145 137 134 157 207 181 175 212 187 176 181 162 156 158 153 151 159 170 175 175 171 171 176 177 181 186 186 186 183 188 196 196 198 199 197 195 191 187 188 189 187 189 179 175 188 190 196 200 191 186 188 183 170 206 190 123 159 202 197 220 232 219 208 214 216 215 219 225 242 282 293 329 53 91 124 128 130 122 113 100 116 169 224
255 240 251 348 348 95 68 65 61 41 98 125 134 150 144 121 127 180 216 197 172 252 164 163 172 159 156 159 158 158 165 175 180 181 178 177 181 181 183 184 182 188 187 186 193 196 198 199 198 197 196 193 190 190 187 191 180 176 191 196 188 187 200 187 180 197 190 209 210 150 202 223 197 219 245 221 205 214 231 228 223 218 216 247 269 22 337 314 306 158 173 171 105 94 192 187 189
263 254 243 21 6 67 68 51 29 3 104 129 147 152 128 134 172 196 227 195 116 44 66 72 102 141 149 151 156 161 169 178 183 187 184 182 185 185 185 180 179 189 189 187 191 193 197 197 199 199 198 198 196 194 189 193 191 180 190 200 190 183 199 195 179 201 206 212 216 174 206 236 198 208 243 221 191 200 232 237 229 201 196 239 243 166 238 268 281 273 251 228 151 200 228 222 205
228 263 230 59 43 56 43 61 16 354 84 110 126 131 133 172 179 163 233 164 112 85 71 69 94 127 139 146 159 166 171 180 187 191 190 187 189 188 187 183 183 188 187 187 190 191 195 195 197 198 198 200 198 196 194 197 198 188 189 199 197 190 195 196 189 203 208 215 221 189 201 235 212 206 229 222 188 193 221 223 217 211 202 226 239 200 220 248 258 259 263 256 223 228 242 246 240
222 266 342 79 69 71 61 75 38 9 50 41 82 127 122 153 128 88 232 175 129 114 91 86 100 127 141 151 166 168 172 181 186 191 194 194 192 191 193 191 187 187 187 189 190 192 194 193 195 197 197 200 199 198 199 201 203 195 193 198 199 199 199 197 198 204 203 211 223 206 201 221 222 211 220 224 206 202 214 214 208 213 213 219 231 220 222 244 250 245 254 256 250 251 257 264 266
216 225 61 79 77 94 99 90 74 13 12 50 129 137 77 83 122 216 228 168 134 128 113 112 117 138 155 159 169 170 173 181 184 188 194 196 193 193 197 198 194 189 190 193 192 193 193 191 194 196 196 199 200 200 201 204 205 199 198 203 201 201 204 201 201 206 206 208 220 220 206 209 217 216 221 224 220 215 215 218 213 212 218 220 227 228 229 245 249 241 250 255 258 257 254 262 268
213 139 84 80 71 87 39 88 111 294 83 124 194 135 84 38 170 233 212 148 137 135 135 143 142 159 173 169 174 174 176 181 184 186 189 194 194 194 196 201 203 195 191 192 192 193 194 193 194 195 196 197 198 199 201 203 206 204 201 205 204 204 208 205 204 210 211 210 217 225 217 210 211 212 224 231 227 224 219 222 224 220 221 220 228 233 234 245 246 241 252 257 258 258 254 255 259
75 120 93 96 104 95 54 101 133 234 106 181 274 103 96 36 229 224 165 143 152 148 152 162 165 179 180 177 177 175 181 181 183 184 186 191 194 194 195 199 204 201 195 193 192 192 196 198 196 196 196 196 197 197 199 201 205 208 205 206 208 209 209 208 210 214 215 214 214 223 226 218 212 207 216 232 229 227 228 230 233 233 229 225 230 236 237 242 242 238 246 253 252 251 251 248 250
120 154 130 144 161 137 182 131 132 190 136 213 313 77 156 193 229 220 155 150 162 159 166 166 178 191 182 180 177 177 183 178 179 185 189 192 194 195 196 199 200 201 199 197 196 194 195 198 197 197 199 199 199 197 199 201 202 208 209 209 212 213 214 211 213 217 219 219 214 219 227 225 220 213 213 227 232 231 235 237 237 238 236 232 231 236 237 238 240 237 240 247 247 244 245 242 241
162 212 216 154 178 206 182 133 120 139 345 277 64 229 219 211 224 206 149 155 153 169 184 166 179 192 182 179 172 179 186 179 180 188 192 193 196 197 198 199 199 200 200 198 199 198 196 196 197 197 199 202 204 202 202 204 202 205 210 213 213 215 217 216 215 218 222 223 219 221 226 227 225 220 213 222 236 234 234 238 239 239 238 235 234 237 238 238 242 242 243 250 253 252 250 247 244
179 208 245 182 179 190 169 147 151 155 316 264 127 225 248 238 218 166 139 158 151 172 186 170 182 185 182 180 173 182 190 188 187 190 194 195 196 198 198 198 198 199 199 198 200 200 198 198 198 198 199 202 206 206 204 205 204 205 210 214 215 216 219 221 221 220 222 227 228 226 226 228 229 227 218 220 235 236 232 235 240 240 240 240 243 245 244 246 249 251 252 256 259 260 257 255 253
206 193 229 211 192 167 160 164 165 155 238 220 170 225 253 265 118 111 130 162 157 182 194 187 187 178 180 179 179 189 192 193 192 194 197 198 198 198 198 198 197 197 197 198 198 197 199 200 200 199 200 201 205 206 202 202 206 207 212 215 217 219 222 225 226 225 223 226 231 232 231 229 231 233 227 221 227 232 228 231 240 245 244 244 250 253 251 252 253 253 255 257 258 260 261 261 261
229 206 196 200 200 174 172 272 227 144 132 197 219 239 240 200 148 131 147 165 171 201 216 211 193 177 179 177 184 196 193 191 193 198 199 198 198 197 197 197 196 197 197 197 197 196 197 199 200 199 200 202 204 207 203 202 205 206 211 217 219 222 224 226 227 228 226 226 230 235 237 234 233 236 236 230 229 233 234 235 238 241 243 243 247 252 255 257 256 253 254 257 257 256 259 263 265
227 214 217 212 196 174 166 279 293 176 163 208 219 239 253 219 166 160 179 180 181 206 225 226 206 183 183 178 180 192 196 195 193 199 200 198 197 196 197 198 198 198 198 197 197 197 196 198 201 199 200 201 202 206 206 203 205 207 208 214 221 223 226 228 227 229 230 230 231 235 240 240 237 235 236 238 240 244 247 245 240 238 241 243 244 249 255 261 261 258 256 257 256 255 254 254 259
182 186 234 228 198 200 187 174 188 175 197 232 193 223 251 242 194 170 188 186 183 208 220 222 214 198 193 186 185 191 197 202 194 195 201 199 196 197 197 197 197 197 198 197 196 198 197 198 202 200 199 200 200 202 205 203 204 207 205 210 221 224 226 228 228 228 231 234 234 234 239 243 242 238 237 239 245 251 252 248 245 243 246 250 251 252 255 261 263 259 255 253 253 253 253 252 252
185 179 206 215 193 215 186 116 198 167 161 227 202 218 243 245 240 200 187 187 189 206 215 224 227 214 205 194 193 195 201 214 198 195 201 199 194 195 194 194 194 193 195 195 194 196 195 197 201 200 199 198 197 198 201 201 201 204 204 208 214 216 217 222 227 230 230 234 237 237 240 244 246 244 241 241 244 248 246 243 241 243 248 252 253 252 252 257 262 259 253 251 249 249 254 254 251
220 176 190 215 191 198 122 94 202 172 150 220 225 240 248 246 250 228 189 184 194 200 202 214 222 219 216 206 205 204 207 214 186 185 194 193 191 192 191 192 191 190 193 194 193 194 194 195 197 200 200 196 194 194 196 198 198 200 203 207 211 213 215 219 225 228 228 231 235 239 241 244 245 245 243 241 241 242 242 241 240 244 251 251 247 248 250 253 259 261 259 254 250 250 252 253 250
306 182 175 216 205 168 51 86 176 180 121 222 218 234 251 247 248 249 208 188 197 198 199 210 213 213 213 208 212 213 202 172 155 158 168 175 180 185 188 191 191 192 194 195 197 197 197 197 197 200 200 197 196 196 196 198 200 203 205 208 211 214 218 220 224 227 230 233 234 236 238 239 242 245 244 243 244 243 242 243 244 248 253 251 247 246 247 249 254 257 258 255 252 252 252 251 249
314 311 164 216 202 125 61 62 140 155 135 254 229 226 252 254 248 249 238 226 215 198 200 209 211 212 213 207 209 210 195 170 168 162 156 166 173 180 185 189 192 196 197 198 200 201 200 199 200 200 200 200 199 198 199 201 203 205 206 207 208 211 214 219 224 226 228 230 231 232 236 240 243 247 249 249 251 248 241 240 244 249 249 247 247 247 246 247 250 250 249 250 251 254 255 251 249
274 302 303 228 183 134 132 188 135 167 185 48 357 311 270 269 269 252 236 237 233 211 207 207 206 212 213 205 200 199 194 186 186 180 169 173 177 182 188 191 193 195 197 199 201 201 201 201 201 201 201 202 202 201 202 203 202 201 202 203 204 207 211 214 219 223 224 224 225 226 231 237 239 242 248 251 252 249 241 238 244 251 250 246 247 252 251 245 243 243 244 247 249 250 253 254 252
244 234 245 275 208 128 95 147 141 26 314 106 33 328 286 237 237 249 235 226 229 222 213 209 209 212 206 195 199 198 193 183 178 180 177 175 179 188 194 196 197 196 197 200 201 202 202 202 201 200 201 202 203 202 201 200 199 196 195 192 191 197 204 208 211 217 224 228 231 233 234 237 236 235 241 248 254 254 249 249 252 254 253 251 252 257 256 248 244 248 250 251 250 248 251 255 254
253 220 212 296 17 106 110 138 141 83 281 223 123 344 285 235 216 235 227 211 222 211 199 207 211 210 203 206 217 212 211 202 177 177 178 175 180 188 194 197 199 200 201 202 202 202 201 201 200 199 198 199 201 202 198 197 196 194 193 192 192 195 201 207 211 212 218 227 234 239 242 244 242 238 236 243 253 258 259 259 254 249 252 257 259 260 259 255 253 254 256 256 253 251 251 252 251
234 239 225 150 88 103 130 152 150 136 225 259 124 171 266 297 267 252 212 192 218 207 204 218 214 212 212 216 223 216 218 223 206 206 212 186 179 180 186 194 199 203 203 201 200 199 198 198 197 197 196 196 198 198 197 196 194 194 195 198 201 204 206 212 218 218 218 224 229 237 246 249 247 243 242 246 252 257 261 261 256 253 260 266 266 263 260 258 258 258 259 257 256 257 254 247 248
215 293 309 155 127 130 150 151 168 183 126 7 351 169 268 299 286 285 164 164 214 215 223 237 227 216 210 208 211 200 193 191 189 204 218 209 193 185 187 193 200 205 204 201 199 196 195 195 194 193 194 195 196 196 196 196 195 195 196 200 204 207 208 207 211 217 220 224 220 222 232 233 233 235 239 245 247 250 254 257 260 261 264 267 266 263 261 261 261 259 258 257 260 260 253 247 250
232 279 9 100 140 150 153 151 182 104 63 320 262 176 280 271 251 277 135 172 230 226 223 228 221 208 192 184 180 165 159 154 160 192 210 215 209 205 202 199 200 204 203 201 198 195 193 192 190 190 191 193 195 195 195 196 197 198 198 200 200 199 199 194 195 205 213 217 214 216 222 224 226 227 231 237 238 240 245 250 255 255 255 257 260 263 266 268 265 259 255 255 257 257 253 251 253
212 184 66 59 58 78 118 160 165 96 75 240 232 185 212 279 255 238 209 214 234 234 231 218 198 178 157 155 151 137 140 143 159 213 222 205 196 196 193 186 186 192 195 196 195 191 189 188 188 187 188 191 192 192 194 194 194 196 198 198 197 197 194 191 194 197 198 200 204 213 223 227 231 235 241 246 245 244 246 249 252 253 254 255 258 263 268 270 265 259 256 257 258 258 258 256 256
145 141 82 61 41 45 43 77 116 107 247 237 224 191 189 273 262 200 188 228 225 226 239 174 133 132 132 132 142 154 163 163 177 208 194 147 155 170 169 170 178 183 185 187 189 187 184 183 182 180 181 185 186 186 189 188 186 189 193 193 193 193 189 191 199 205 208 209 211 217 225 233 240 248 253 257 257 255 251 252 254 256 259 259 261 262 262 263 264 265 265 266 265 264 263 261 261
108 129 112 80 19 36 30 358 79 156 244 254 301 308 167 229 255 218 213 230 185 162 206 175 153 144 144 144 151 158 161 166 174 182 164 136 142 165 165 164 172 174 174 174 175 178 178 177 175 172 173 178 179 180 182 182 180 180 183 187 187 184 184 192 200 210 218 222 226 230 232 234 239 246 253 260 268 269 261 254 252 253 257 261 264 264 260 259 262 265 269 271 273 272 272 271 269
87 145 129 119 79 72 111 254 175 210 242 249 308 358 227 234 251 260 261 245 195 170 153 164 164 151 145 153 152 150 162 178 174 166 160 155 161 168 161 158 162 163 164 165 164 166 168 168 169 166 165 170 173 172 173 177 178 177 176 181 184 182 185 191 195 203 215 227 239 244 248 247 244 254 271 288 300 302 290 277 270 263 260 261 267 273 272 268 268 271 274 277 280 281 281 279 275
189 168 143 146 155 131 194 206 190 225 257 283 280 296 267 270 265 247 247 250 225 157 123 122 136 139 142 148 145 150 169 179 166 158 159 164 165 160 154 153 155 155 154 155 155 157 159 162 165 163 161 166 169 168 169 172 175 177 176 176 179 180 184 190 194 198 204 210 222 229 233 241 252 281 303 314 320 320 309 304 307 300 286 275 267 266 273 278 280 281 281 281 282 286 289 287 282
198 184 145 163 176 161 185 186 185 207 237 322 302 243 196 218 251 235 226 231 83 99 108 105 111 124 131 135 147 156 161 157 142 137 135 134 137 140 141 142 144 144 146 148 149 151 156 161 166 164 161 164 165 166 168 167 167 171 172 171 171 176 182 186 189 193 196 200 204 210 212 217 227 235 245 249 241 242 254 265 277 288 298 300 294 279 269 269 273 277 280 281 279 283 291 292 291
221 178 128 190 207 145 142 177 175 156 100 310 243 246 219 207 254 249 172 119 105 113 126 129 130 142 141 151 173 165 156 153 135 118 111 107 113 120 124 128 132 136 138 142 145 148 151 157 161 158 155 156 156 157 159 159 159 161 164 165 166 173 177 174 176 185 195 201 206 213 218 227 238 239 242 249 252 255 259 261 261 263 272 291 303 302 293 283 276 275 278 281 279 277 277 278 281
198 145 167 211 177 115 121 244 112 107 179 237 185 252 276 276 282 256 165 153 177 167 176 180 168 159 156 171 179 159 149 146 129 117 115 104 103 109 114 120 126 130 132 135 139 143 146 151 153 149 147 149 150 153 155 158 161 163 165 169 172 177 177 172 176 189 200 207 211 216 219 227 241 247 257 267 272 273 272 272 276 276 269 266 274 287 295 296 291 286 283 282 284 284 282 281 283
114 154 201 205 63 80 118 194 8 90 231 242 174 214 252 234 273 293 143 183 219 203 203 202 179 169 172 180 170 153 145 135 119 111 105 99 100 104 108 112 118 126 130 131 133 136 140 145 149 147 146 148 151 153 155 158 161 162 164 169 171 173 174 174 180 186 189 187 174 174 183 196 228 258 279 293 301 299 290 287 291 292 285 278 274 273 278 285 291 297 296 293 294 296 296 295 296
118 176 200 115 141 255 151 181 201 165 214 266 226 222 231 202 217 258 187 212 220 210 206 201 192 187 183 178 163 147 135 124 115 113 107 104 106 106 108 110 113 122 128 130 132 133 135 140 145 146 145 146 150 153 154 154 156 157 158 159 159 159 162 164 166 162 155 146 134 127 128 122 78 344 345 350 346 333 320 318 319 320 315 309 304 295 289 289 293 298 300 300 302 302 298 296 295
52 17 21 66 161 184 172 198 208 164 198 261 256 234 243 231 211 203 211 212 202 200 204 204 200 192 185 177 164 151 141 138 136 132 127 113 109 110 112 114 114 118 122 127 131 131 132 137 141 142 142 142 145 149 150 150 150 151 150 149 150 151 151 149 145 140 128 114 103 97 89 78 64 48 38 34 28 18 12 13 15 11 3 357 351 344 334 323 317 315 311 309 308 303 297 294 293
165 107 130 160 176 120 101 259 219 159 185 234 250 257 259 249 217 209 217 211 196 195 198 205 202 190 186 173 159 156 149 152 153 142 132 116 110 111 114 118 118 119 120 123 127 126 125 129 133 135 137 137 138 141 144 144 144 145 145 143 142 139 136 133 129 119 108 102 97 92 87 81 75 67 60 57 55 50 48 46 44 40 33 25 18 12 5 355 347 342 334 324 318 312 308 308 306
173 185 185 185 179 136 126 256 226 178 188 201 206 254 268 264 260 227 212 177 180 190 190 200 199 185 181 170 161 163 160 160 158 143 132 121 117 117 119 121 121 120 120 121 124 124 123 124 127 131 133 132 133 136 138 140 140 140 137 134 132 128 125 121 117 111 107 104 100 95 93 89 85 80 75 73 68 63 60 57 54 49 42 36 29 24 17 9 2 355 347 339 331 325 324 322 320